Location: Aalen
(48.8330°N, 10.1000°E)
Time: 02:02:55
(UTC+01:00)

BlueWalker 3 - Pass Details

Date: 02 December 2022
Orbit: 499 x 517 km, 53.2° (Epoch: 26 January)

Event Time Altitude Azimuth Distance (km) Brightness Sun altitude
Rises 16:49:33 0° 258° (WSW) 2,633 7.4 -4.3°
Reaches altitude 10° 16:51:47 10° 263° (W) 1,744 6.1 -4.6°
Maximum altitude 16:55:41 58° 343° (NNW) 603 2.3 -5.2°
Drops below altitude 10° 16:59:34 10° 64° (ENE) 1,735 4.0 -5.7°
Enters shadow 17:00:07 - 65° (ENE) 1,950 4.2 -5.8°
